Overview Statistics Trail Chart Weather Telemetry Raw packets
 

This is the latest recevied weather packets stored in our database for station/object N9BLE. If no packets are shown the sender has not sent any weather packets the latest 10 day(s).

<< 101 102 103 104 105 106 107 >>
Time Temp. Humidity Pressure Rain* Wind** Luminosity Snow
1777247835 15° C 71% 1018.7 hPa 0 mm - 31 W/m² -
1777247532 15° C 70% 1018.8 hPa 0 mm - 35 W/m² -
1777247230 15° C 70% 1018.6 hPa 0 mm - 35 W/m² -
1777246928 15.56° C 69% 1018.8 hPa 0 mm - 35 W/m² -
1777246623 15.56° C 69% 1018.8 hPa 0 mm - 37 W/m² -
1777246320 15.56° C 68% 1018.8 hPa 0 mm - 42 W/m² -
1777246017 15.56° C 67% 1019.1 hPa 0 mm - 47 W/m² -
1777245716 16.11° C 67% 1019 hPa 0 mm - 55 W/m² -
1777245412 16.11° C 67% 1019.1 hPa 0 mm - 56 W/m² -
1777245112 16.67° C 66% 1019 hPa 0 mm - 54 W/m² -
1777244809 16.67° C 66% 1019.2 hPa 0 mm - 58 W/m² -
1777244505 16.67° C 65% 1019.1 hPa 0 mm - 61 W/m² -
1777244201 16.67° C 65% 1019.2 hPa 0 mm - 62 W/m² -
1777243901 16.67° C 64% 1019 hPa 0 mm - 65 W/m² -
1777243596 17.22° C 64% 1019.2 hPa 0 mm - 171 W/m² -
1777243292 17.22° C 63% 1019.4 hPa 0 mm - 196 W/m² -
1777242988 17.78° C 63% 1019.1 hPa 0 mm - 117 W/m² -
1777242686 17.22° C 63% 1019.2 hPa 0 mm - 79 W/m² -
1777242381 17.78° C 61% 1019.4 hPa 0 mm - 222 W/m² -
1777242079 17.78° C 61% 1019.4 hPa 0 mm - 264 W/m² -
1777241776 18.33° C 61% 1019.4 hPa 0 mm - 285 W/m² -
1777241473 18.33° C 61% 1019.5 hPa 0 mm - 301 W/m² -
1777241171 17.78° C 62% 1019.3 hPa 0 mm - 320 W/m² -
1777240868 18.33° C 60% 1019 hPa 0 mm - 330 W/m² -
1777240566 18.33° C 61% 1018.9 hPa 0 mm - 351 W/m² -

* Rain latest hour (hover to see other rain measurements)
** Current wind speed in m/s (hover to see current wind gust speed)